星链-35273(STARLINK-35273)

导读 | 豆包AI

STARLINK-35273是美国太空探索技术公司Starlink星链星座的一颗运营中卫星,于2025年9月26日,在美国加利福尼亚州空军西部试验场发射升空。该卫星NORAD编号为65805,国际空间站编号为2025-218Q,轨道倾角97.602°,平均轨道高度约556.6千米,轨道周期95.639分钟,目前运行正常,属于星链低轨互联网卫星星座组网的一部分。

Basic Information
目录编号:
65805
目录名称:
STARLINK-35273
国际标识:
2025-218Q
轨道中心:
EARTH
卫星名称:
星链-35273
卫星全名:
星链-35273(STARLINK-35273)
卫星状态:
在轨 (已飞行169 天)
发射日期:
2025-09-26 UTC
国别 :
美国 (US)
星等 :
--
Orbit Information
数据来源 国际轨道数据 AOE轨道数据
星历时间 2026-03-13T12:28:28+0800
1天前
查看轨道信息
2026-03-14T09:00:00+0800
9小时前
查看轨道信息
半长轴 6927.656km 6927.704km
偏心率 0.0001523 0.0001314
轨道倾角 97.602° 97.603°
近地点辐角 92.406° 87.797°
升交点赤经 296.366° 297.210°
平近点角 267.734° 225.003°
近地点 548.463km 548.656km
远地点 550.575km 550.478km
周期 95.640分钟 95.641分钟
每日圈数 15.056475 15.056319
Detailed Information
固有亮度:
5
最大亮度:
2.5
卫星平台:
Starlink V1.0
覆盖范围:
全球
运营商:
太空探索技术公司
运营商所在国:
美国
制造商(研发单位):
太空探索技术公司
制造商所在国:
美国
使用方式:
暂无
Satellite Introduction
Starlink 计划是 SpaceX 推出的全球卫星互联网项目,通过发射低轨道卫星,为全球尤其是偏远地区提供高速、低延迟的互联网服务。自 2019 年起,Starlink 已部署数千颗卫星,旨在缩小全球数字鸿沟,推动互联网普及。该项目还为军事、航空等行业提供通信支持,带来广泛经济效益。
2D Orbit Map
3D Orbit Map
Orbit Altitude Analysis Chart
Orbit Inclination Analysis Chart
Orbit Comprehensive Analysis Chart
View Comprehensive Chart